,,Stat5,,Stat1,,Stat2,,Stat3,,Stat4,,Wind1,,Wind1,
time,status,PA1M_AVG,status,PR1M_SUM,status,RH1M_AVG,status,SR1M_AVG,status,TA1M_AVG,status,W1dAve1m,status,W1sAve1m,
2003-06-14, 00:00:01,VALID,918.693,VALID,0,VALID,98.2111,VALID,-0.0169808,VALID,20.709,VALID,77,VALID,0.763616,
2003-06-14, 00:01:01,VALID,918.693,VALID,0,VALID,98.1844,VALID,-0.0169808,VALID,20.6926,VALID,84,VALID,0.745683,
2003-06-14, 00:02:01,VALID,918.693,VALID,0,VALID,98.1641,VALID,-0.0169808,VALID,20.7063,VALID,77,VALID,0.806641,
2003-06-14, 00:03:01,VALID,918.705,VALID,0,VALID,98.2289,VALID,0,VALID,20.7028,VALID,78,VALID,0.474301,
2003-06-14, 00:04:01,VALID,918.719,VALID,0,VALID,98.0992,VALID,0,VALID,20.6993,VALID,68,VALID,0.58125,
2003-06-14, 00:05:01,VALID,918.735,VALID,0,VALID,98.0038,VALID,0,VALID,20.68,VALID,67,VALID,0.844531,
2003-06-14, 00:06:01,VALID,918.746,VALID,0,VALID,97.9021,VALID,0.0169808,VALID,20.6606,VALID,61,VALID,0.702724,
2003-06-14, 00:07:01,VALID,918.759,VALID,0,VALID,97.7775,VALID,0,VALID,20.6318,VALID,45,VALID,0.815245,
2003-06-14, 00:08:01,VALID,918.776,VALID,0,VALID,97.747,VALID,-0.0169808,VALID,20.5963,VALID,43,VALID,0.751645,
2003-06-14, 00:09:01,VALID,918.78,VALID,0,VALID,97.8474,VALID,0,VALID,20.5965,VALID,39,VALID,0.673242,
2003-06-14, 00:10:01,VALID,918.78,VALID,0,VALID,97.8716,VALID,0,VALID,20.564,VALID,47,VALID,0.821157,
2003-06-14, 00:11:01,VALID,918.789,VALID,0,VALID,98.0433,VALID,-0.0169808,VALID,20.5675,VALID,55,VALID,0.853906,
2003-06-14, 00:12:01,VALID,918.792,VALID,0,VALID,98.1348,VALID,-0.0339617,VALID,20.5807,VALID,60,VALID,0.754407,
2003-06-14, 00:13:01,VALID,918.787,VALID,0,VALID,98.1361,VALID,-0.0339617,VALID,20.5779,VALID,53,VALID,0.427973,
2003-06-14, 00:14:01,VALID,918.787,VALID,0,VALID,98.0738,VALID,-0.0339617,VALID,20.5613,VALID,53,VALID,0.345017,
2003-06-14, 00:15:01,VALID,918.79,VALID,0,VALID,97.9797,VALID,-0.0169808,VALID,20.5389,VALID,52,VALID,0.667668,
2003-06-14, 00:16:01,VALID,918.793,VALID,0,VALID,97.6236,VALID,-0.0339617,VALID,20.4448,VALID,39,VALID,0.799352,
2003-06-14, 00:17:01,VALID,918.798,VALID,0,VALID,97.8207,VALID,-0.0679233,VALID,20.4197,VALID,39,VALID,0.800781,
2003-06-14, 00:18:01,VALID,918.804,VALID,0,VALID,98.0661,VALID,-0.0509425,VALID,20.4262,VALID,44,VALID,0.80028,
2003-06-14, 00:19:01,VALID,918.815,VALID,0,VALID,98.2989,VALID,-0.0509425,VALID,20.4353,VALID,52,VALID,0.617578,
2003-06-14, 00:20:01,VALID,918.814,VALID,0,VALID,98.379,VALID,-0.0169808,VALID,20.4515,VALID,51,VALID,0.671274,
2003-06-14, 00:21:00,VALID,918.803,VALID,0,VALID,98.3154,VALID,-0.0509425,VALID,20.4582,VALID,56,VALID,0.553906,
2003-06-14, 00:22:00,VALID,918.781,VALID,0,VALID,98.1946,VALID,-0.0339617,VALID,20.4291,VALID,53,VALID,0.528245,
2003-06-14, 00:23:00,VALID,918.761,VALID,0,VALID,98.0038,VALID,-0.0339617,VALID,20.3713,VALID,47,VALID,0.562691,
2003-06-14, 00:24:00,VALID,918.742,VALID,0,VALID,98.1348,VALID,-0.0509425,VALID,20.3484,VALID,61,VALID,0.731158,
2003-06-14, 00:25:00,VALID,918.721,VALID,0,VALID,98.2658,VALID,-0.0509425,VALID,20.3444,VALID,67,VALID,0.582442,
2003-06-14, 00:26:00,VALID,918.693,VALID,0,VALID,98.4069,VALID,-0.0509425,VALID,20.3648,VALID,83,VALID,0.629434,
2003-06-14, 00:27:00,VALID,918.675,VALID,0,VALID,98.4095,VALID,-0.0509425,VALID,20.3678,VALID,103,VALID,0.38788,
2003-06-14, 00:28:00,VALID,918.656,VALID,0,VALID,98.3929,VALID,-0.0509425,VALID,20.3581,VALID,111,VALID,0.208079,
2003-06-14, 00:29:00,VALID,918.658,VALID,0,VALID,98.426,VALID,-0.0509425,VALID,20.3422,VALID,111,VALID,0.417763,
2003-06-14, 00:30:00,VALID,918.642,VALID,0,VALID,98.4502,VALID,-0.0679233,VALID,20.3353,VALID,111,VALID,0.265831,
2003-06-14, 00:31:00,VALID,918.618,VALID,0,VALID,98.3802,VALID,-0.0849042,VALID,20.3099,VALID,111,VALID,0.21875,
2003-06-14, 00:32:00,VALID,918.579,VALID,0,VALID,98.4718,VALID,-0.0509425,VALID,20.2903,VALID,111,VALID,0.289648,
2003-06-14, 00:33:00,VALID,918.537,VALID,0,VALID,98.4959,VALID,-0.0679233,VALID,20.2871,VALID,113,VALID,0.34375,
2003-06-14, 00:34:00,VALID,918.523,VALID,0,VALID,98.4057,VALID,-0.0339617,VALID,20.2714,VALID,126,VALID,0.563902,
2003-06-14, 00:35:00,VALID,918.511,VALID,0,VALID,98.4731,VALID,-0.101885,VALID,20.2223,VALID,122,VALID,0.750781,
2003-06-14, 00:36:00,VALID,918.505,VALID,0,VALID,98.6206,VALID,-0.0339617,VALID,20.2262,VALID,129,VALID,0.747997,
2003-06-14, 00:37:00,VALID,918.484,VALID,0,VALID,98.8545,VALID,-0.0679233,VALID,20.2518,VALID,104,VALID,0.59375,
2003-06-14, 00:38:00,VALID,918.481,VALID,0,VALID,98.7236,VALID,-0.0679233,VALID,20.2419,VALID,103,VALID,0.111909,
2003-06-14, 00:39:00,VALID,918.476,VALID,0,VALID,98.7223,VALID,-0.0509425,VALID,20.226,VALID,141,VALID,0.332812,
2003-06-14, 00:40:00,VALID,918.476,VALID,0,VALID,98.8329,VALID,-0.0849042,VALID,20.2166,VALID,136,VALID,0.52793,
2003-06-14, 00:41:00,VALID,918.464,VALID,0,VALID,98.8456,VALID,-0.0679233,VALID,20.22,VALID,142,VALID,0.426809,
2003-06-14, 00:42:00,VALID,918.435,VALID,0,VALID,98.8596,VALID,0.0339617,VALID,20.2051,VALID,141,VALID,0.197206,
2003-06-14, 00:43:00,VALID,918.423,VALID,0,VALID,98.8774,VALID,0.0169808,VALID,20.176,VALID,140,VALID,0.257422,
2003-06-14, 00:44:00,VALID,918.396,VALID,0,VALID,98.8914,VALID,0.0169808,VALID,20.1728,VALID,125,VALID,0.46875,
2003-06-14, 00:45:00,VALID,918.368,VALID,0,VALID,98.9677,VALID,0.0339617,VALID,20.1438,VALID,127,VALID,0.565039,
2003-06-14, 00:46:00,VALID,918.352,VALID,0,VALID,99.0377,VALID,0.0679233,VALID,20.1534,VALID,129,VALID,0.472356,
2003-06-14, 00:47:00,VALID,918.334,VALID,0,VALID,99.0885,VALID,0.0169808,VALID,20.1634,VALID,144,VALID,0.564215,
2003-06-14, 00:48:00,VALID,918.309,VALID,0,VALID,99.1152,VALID,0.0339617,VALID,20.1537,VALID,144,VALID,0.695735,
2003-06-14, 00:49:00,VALID,918.293,VALID,0,VALID,99.1356,VALID,0.0339617,VALID,20.1567,VALID,144,VALID,0.652644,
2003-06-14, 00:50:00,VALID,918.273,VALID,0,VALID,98.997,VALID,0,VALID,20.1182,VALID,141,VALID,0.0833984,
2003-06-14, 00:51:00,VALID,918.248,VALID,0,VALID,99.0122,VALID,0.0509425,VALID,20.0598,VALID,143,VALID,0.220084,
2003-06-14, 00:52:00,VALID,918.217,VALID,0,VALID,99.1839,VALID,0,VALID,20.0534,VALID,155,VALID,0.733631,
2003-06-14, 00:53:00,VALID,918.209,VALID,0,VALID,99.2462,VALID,0.0509425,VALID,20.0698,VALID,154,VALID,0.565667,
2003-06-14, 00:54:00,VALID,918.195,VALID,0,VALID,99.2691,VALID,0.0679233,VALID,20.0725,VALID,174,VALID,0.476944,
2003-06-14, 00:55:00,VALID,918.179,VALID,0,VALID,99.3301,VALID,0.0339617,VALID,20.1085,VALID,151,VALID,0.471418,
2003-06-14, 00:56:00,VALID,918.179,VALID,0,VALID,99.3797,VALID,0.0339617,VALID,20.1438,VALID,182,VALID,0.511191,
2003-06-14, 00:57:00,VALID,918.162,VALID,0,VALID,99.4242,VALID,0.0339617,VALID,20.1865,VALID,174,VALID,0.248437,
2003-06-14, 00:58:00,VALID,918.158,VALID,0,VALID,99.4077,VALID,0.0339617,VALID,20.1895,VALID,133,VALID,0.0921875,
2003-06-14, 00:59:00,VALID,918.159,VALID,0,VALID,99.2106,VALID,0,VALID,20.0891,VALID,59,VALID,0.278571,
2003-06-14, 01:00:00,VALID,918.147,VALID,0,VALID,99.1559,VALID,0.0169808,VALID,20.0248,VALID,68,VALID,0.0680804,
2003-06-14, 01:01:00,VALID,918.142,VALID,0,VALID,99.2386,VALID,0.0169808,VALID,19.999,VALID,103,VALID,0,
2003-06-14, 01:02:00,VALID,918.148,VALID,0,VALID,99.1445,VALID,0.0169808,VALID,19.9538,VALID,43,VALID,0.947985,
2003-06-14, 01:03:00,VALID,918.152,VALID,0,VALID,99.0605,VALID,0.0509425,VALID,19.8634,VALID,31,VALID,0.931166,
2003-06-14, 01:04:00,VALID,918.144,VALID,0,VALID,99.1877,VALID,0.101885,VALID,19.8532,VALID,28,VALID,0.499178,
2003-06-14, 01:05:00,VALID,918.147,VALID,0,VALID,99.311,VALID,0.0339617,VALID,19.8661,VALID,28,VALID,0.021176,
2003-06-14, 01:06:00,VALID,918.15,VALID,0,VALID,99.3912,VALID,0.0849042,VALID,19.918,VALID,28,VALID,0.248828,
2003-06-14, 01:07:00,VALID,918.141,VALID,0,VALID,99.4115,VALID,0.0169808,VALID,19.9446,VALID,28,VALID,0.0732996,
2003-06-14, 01:08:00,VALID,918.131,VALID,0,VALID,99.4013,VALID,0.0509425,VALID,19.9178,VALID,28,VALID,0.131055,
2003-06-14, 01:09:00,VALID,918.124,VALID,0,VALID,99.3161,VALID,0,VALID,19.8766,VALID,28,VALID,0.126202,
2003-06-14, 01:10:00,VALID,918.105,VALID,0,VALID,99.2615,VALID,0.0169808,VALID,19.805,VALID,28,VALID,0.162162,
2003-06-14, 01:11:00,VALID,918.08,VALID,0,VALID,99.3581,VALID,0.0169808,VALID,19.8125,VALID,28,VALID,0.0815305,
2003-06-14, 01:12:00,VALID,918.068,VALID,0,VALID,99.4802,VALID,-0.0679233,VALID,19.8743,VALID,33,VALID,0.381579,
2003-06-14, 01:13:00,VALID,918.055,VALID,0,VALID,99.5654,VALID,-0.0509425,VALID,19.9677,VALID,50,VALID,0.44992,
2003-06-14, 01:14:00,VALID,918.045,VALID,0,VALID,99.5921,VALID,-0.0339617,VALID,20.0159,VALID,58,VALID,0.542111,
2003-06-14, 01:15:00,VALID,918.039,VALID,0,VALID,99.5959,VALID,-0.0679233,VALID,20.0454,VALID,59,VALID,0.441106,
2003-06-14, 01:16:00,VALID,918.035,VALID,0,VALID,99.5755,VALID,-0.0679233,VALID,20.0253,VALID,65,VALID,0.466682,
2003-06-14, 01:17:00,VALID,918.037,VALID,0,VALID,99.5514,VALID,-0.0339617,VALID,20.0124,VALID,86,VALID,0.50957,
2003-06-14, 01:18:00,VALID,918.019,VALID,0,VALID,99.5463,VALID,-0.0509425,VALID,20.0129,VALID,106,VALID,0.524282,
2003-06-14, 01:19:00,VALID,918.006,VALID,0,VALID,99.5348,VALID,-0.0679233,VALID,20.0064,VALID,106,VALID,0.342383,
2003-06-14, 01:20:00,VALID,917.979,VALID,0,VALID,99.4713,VALID,-0.0509425,VALID,19.9521,VALID,134,VALID,0.504607,
2003-06-14, 01:21:00,VALID,917.936,VALID,0,VALID,99.4268,VALID,-0.0849042,VALID,19.8999,VALID,137,VALID,0.553163,
2003-06-14, 01:22:00,VALID,917.917,VALID,0,VALID,99.4522,VALID,-0.0339617,VALID,19.8838,VALID,130,VALID,0.523015,
2003-06-14, 01:23:00,VALID,917.895,VALID,0,VALID,99.4929,VALID,-0.0679233,VALID,19.8934,VALID,124,VALID,0.420072,
2003-06-14, 01:24:00,VALID,917.87,VALID,0,VALID,99.4611,VALID,-0.0509425,VALID,19.8649,VALID,119,VALID,0.206364,
2003-06-14, 01:25:00,VALID,917.861,VALID,0,VALID,99.4268,VALID,-0.0849042,VALID,19.8165,VALID,94,VALID,0.168997,
2003-06-14, 01:26:00,VALID,917.858,VALID,0,VALID,99.2068,VALID,-0.0169808,VALID,19.6933,VALID,60,VALID,0.0436699,
2003-06-14, 01:27:00,VALID,917.846,VALID,0,VALID,99.2042,VALID,-0.0679233,VALID,19.6257,VALID,60,VALID,0,
2003-06-14, 01:28:00,VALID,917.839,VALID,0,VALID,99.2347,VALID,-0.0849042,VALID,19.5935,VALID,59,VALID,0,
2003-06-14, 01:29:00,VALID,917.832,VALID,0,VALID,99.3123,VALID,-0.0339617,VALID,19.5905,VALID,60,VALID,0,
2003-06-14, 01:30:00,VALID,917.82,VALID,0,VALID,99.3403,VALID,-0.0339617,VALID,19.593,VALID,61,VALID,0.0512821,
2003-06-14, 01:31:00,VALID,917.803,VALID,0,VALID,99.4509,VALID,0.0849042,VALID,19.621,VALID,61,VALID,0.353277,
2003-06-14, 01:32:00,VALID,917.787,VALID,0,VALID,99.5183,VALID,0.0339617,VALID,19.6767,VALID,66,VALID,0.268842,
2003-06-14, 01:33:00,VALID,917.765,VALID,0,VALID,99.5272,VALID,0.0509425,VALID,19.7281,VALID,94,VALID,0.136924,
2003-06-14, 01:34:00,VALID,917.748,VALID,0,VALID,99.517,VALID,0.0339617,VALID,19.7281,VALID,94,VALID,0.129645,
2003-06-14, 01:35:00,VALID,917.737,VALID,0,VALID,99.5348,VALID,0.0339617,VALID,19.737,VALID,121,VALID,0.346917,
2003-06-14, 01:36:00,VALID,917.704,VALID,0,VALID,99.5755,VALID,0.0339617,VALID,19.8023,VALID,138,VALID,0.351944,
2003-06-14, 01:37:00,VALID,917.675,VALID,0,VALID,99.5832,VALID,0.0339617,VALID,19.8314,VALID,138,VALID,0.258224,
2003-06-14, 01:38:00,VALID,917.675,VALID,0,VALID,99.5704,VALID,0.0169808,VALID,19.8376,VALID,131,VALID,0.159951,
2003-06-14, 01:39:00,VALID,917.659,VALID,0,VALID,99.5781,VALID,0.0169808,VALID,19.854,VALID,131,VALID,0.259766,
2003-06-14, 01:40:00,VALID,917.656,VALID,0,VALID,99.5794,VALID,0.0169808,VALID,19.8798,VALID,146,VALID,0.259375,
2003-06-14, 01:41:00,VALID,917.636,VALID,0,VALID,99.5768,VALID,0,VALID,19.8992,VALID,147,VALID,0.00303819,
2003-06-14, 01:42:00,VALID,917.631,VALID,0,VALID,99.5794,VALID,-0.0849042,VALID,19.9101,VALID,147,VALID,0.0400641,
2003-06-14, 01:43:00,VALID,917.617,VALID,0,VALID,99.5666,VALID,-0.0849042,VALID,19.9163,VALID,146,VALID,0.210547,
2003-06-14, 01:44:00,VALID,917.601,VALID,0,VALID,99.5361,VALID,-0.0509425,VALID,19.9165,VALID,130,VALID,0.42508,
2003-06-14, 01:45:00,VALID,917.582,VALID,0,VALID,99.4802,VALID,0,VALID,19.8579,VALID,93,VALID,0.478365,
2003-06-14, 01:46:00,VALID,917.559,VALID,0,VALID,99.4039,VALID,-0.0509425,VALID,19.7834,VALID,77,VALID,0.551098,
2003-06-14, 01:47:00,VALID,917.544,VALID,0,VALID,99.3352,VALID,-0.0849042,VALID,19.7159,VALID,58,VALID,0.704883,
2003-06-14, 01:48:00,VALID,917.544,VALID,0,VALID,99.2373,VALID,-0.0849042,VALID,19.6488,VALID,56,VALID,0.610352,
2003-06-14, 01:49:00,VALID,917.545,VALID,0,VALID,99.3632,VALID,-0.0849042,VALID,19.6327,VALID,52,VALID,0.701686,
2003-06-14, 01:50:00,VALID,917.528,VALID,0,VALID,99.4115,VALID,-0.0679233,VALID,19.6421,VALID,47,VALID,0.312027,
2003-06-14, 01:51:00,VALID,917.548,VALID,0,VALID,99.4395,VALID,-0.0509425,VALID,19.6548,VALID,47,VALID,0.477734,
2003-06-14, 01:52:00,VALID,917.567,VALID,0,VALID,99.3594,VALID,-0.0849042,VALID,19.623,VALID,47,VALID,0.49379,
2003-06-14, 01:53:00,VALID,917.576,VALID,0,VALID,99.3937,VALID,-0.101885,VALID,19.6262,VALID,47,VALID,0.131836,
2003-06-14, 01:54:00,VALID,917.589,VALID,0,VALID,99.4535,VALID,-0.0509425,VALID,19.6451,VALID,89,VALID,0.381611,
2003-06-14, 01:55:00,VALID,917.592,VALID,0,VALID,99.4751,VALID,-0.0169808,VALID,19.6645,VALID,132,VALID,0.645008,
2003-06-14, 01:56:00,VALID,917.585,VALID,0,VALID,99.4802,VALID,-0.0339617,VALID,19.6811,VALID,144,VALID,0.745355,
2003-06-14, 01:57:00,VALID,917.571,VALID,0,VALID,99.4624,VALID,-0.0169808,VALID,19.6906,VALID,150,VALID,0.626402,
2003-06-14, 01:58:00,VALID,917.571,VALID,0,VALID,99.4942,VALID,0,VALID,19.7258,VALID,163,VALID,0.666406,
2003-06-14, 01:59:00,VALID,917.542,VALID,0,VALID,99.4649,VALID,0,VALID,19.7288,VALID,178,VALID,0.00971799,
2003-06-14, 02:00:00,VALID,917.538,VALID,0,VALID,99.0631,VALID,0,VALID,19.5714,VALID,178,VALID,0.00093006,
2003-06-14, 02:01:00,VALID,917.53,VALID,0,VALID,99.1483,VALID,0,VALID,19.48,VALID,178,VALID,0,
2003-06-14, 02:02:00,VALID,917.521,VALID,0,VALID,99.3314,VALID,0.0169808,VALID,19.5031,VALID,178,VALID,0.00247713,
2003-06-14, 02:03:00,VALID,917.518,VALID,0,VALID,99.395,VALID,0.0169808,VALID,19.5418,VALID,178,VALID,0.00609756,
2003-06-14, 02:04:00,VALID,917.508,VALID,0,VALID,99.428,VALID,0,VALID,19.6064,VALID,178,VALID,0.0770693,
2003-06-14, 02:05:00,VALID,917.509,VALID,0,VALID,99.4471,VALID,0,VALID,19.6419,VALID,178,VALID,0.0314453,
2003-06-14, 02:06:00,VALID,917.495,VALID,0,VALID,99.4611,VALID,-0.0169808,VALID,19.6645,VALID,170,VALID,0.00803571,
2003-06-14, 02:07:00,VALID,917.482,VALID,0,VALID,99.5031,VALID,0,VALID,19.7097,VALID,168,VALID,0,
2003-06-14, 02:08:00,VALID,917.463,VALID,0,VALID,99.4903,VALID,0,VALID,19.7295,VALID,168,VALID,0,
2003-06-14, 02:09:00,VALID,917.445,VALID,0,VALID,99.4585,VALID,0.0169808,VALID,19.739,VALID,168,VALID,0.051098,
2003-06-14, 02:10:00,VALID,917.44,VALID,0,VALID,99.4001,VALID,0,VALID,19.7164,VALID,172,VALID,0.322368,
2003-06-14, 02:11:00,VALID,917.421,VALID,0,VALID,99.3149,VALID,0,VALID,19.6876,VALID,172,VALID,0.0485642,
2003-06-14, 02:12:00,VALID,917.427,VALID,0,VALID,99.2564,VALID,-0.0339617,VALID,19.6357,VALID,173,VALID,0.136924,
2003-06-14, 02:13:00,VALID,917.418,VALID,0,VALID,99.311,VALID,0,VALID,19.6265,VALID,174,VALID,0.252056,
2003-06-14, 02:14:00,VALID,917.438,VALID,0,VALID,99.3365,VALID,-0.0339617,VALID,19.626,VALID,174,VALID,0.0208984,
2003-06-14, 02:15:00,VALID,917.441,VALID,0,VALID,99.3149,VALID,0,VALID,19.6064,VALID,176,VALID,0.426241,
2003-06-14, 02:16:00,VALID,917.45,VALID,0,VALID,99.4001,VALID,-0.0339617,VALID,19.6526,VALID,181,VALID,0.282227,
2003-06-14, 02:17:00,VALID,917.469,VALID,0,VALID,99.3873,VALID,0,VALID,19.6814,VALID,166,VALID,0.123197,
2003-06-14, 02:18:00,VALID,917.485,VALID,0,VALID,99.3683,VALID,-0.0169808,VALID,19.665,VALID,156,VALID,0,
2003-06-14, 02:19:00,VALID,917.492,VALID,0,VALID,99.311,VALID,0,VALID,19.6615,VALID,156,VALID,0,
2003-06-14, 02:20:00,VALID,917.509,VALID,0,VALID,99.3479,VALID,0,VALID,19.6486,VALID,150,VALID,0.400905,
2003-06-14, 02:21:00,VALID,917.512,VALID,0,VALID,99.4242,VALID,0,VALID,19.697,VALID,132,VALID,0.319311,
2003-06-14, 02:22:00,VALID,917.516,VALID,0,VALID,99.4255,VALID,0,VALID,19.7454,VALID,131,VALID,0.278011,
2003-06-14, 02:23:00,VALID,917.52,VALID,0,VALID,99.3899,VALID,-0.0169808,VALID,19.7877,VALID,124,VALID,0.563502,
2003-06-14, 02:24:00,VALID,917.52,VALID,0,VALID,99.2131,VALID,0,VALID,19.7844,VALID,94,VALID,0.387408,
2003-06-14, 02:25:00,VALID,917.507,VALID,0,VALID,98.796,VALID,0,VALID,19.6873,VALID,87,VALID,0.343359,
2003-06-14, 02:26:00,VALID,917.506,VALID,0,VALID,98.3726,VALID,0,VALID,19.5773,VALID,49,VALID,0.391681,
2003-06-14, 02:27:00,VALID,917.499,VALID,0,VALID,97.8932,VALID,-0.0169808,VALID,19.442,VALID,37,VALID,0.632422,
2003-06-14, 02:28:00,VALID,917.478,VALID,0,VALID,97.4698,VALID,0,VALID,19.2776,VALID,19,VALID,1.39683,
2003-06-14, 02:29:00,VALID,917.468,VALID,0,VALID,98.0064,VALID,0,VALID,19.2617,VALID,19,VALID,1.38186,
2003-06-14, 02:30:00,VALID,917.439,VALID,0,VALID,98.281,VALID,-0.0169808,VALID,19.2781,VALID,19,VALID,1.06883,
2003-06-14, 02:31:00,VALID,917.433,VALID,0,VALID,98.604,VALID,0,VALID,19.3134,VALID,35,VALID,1.20573,
2003-06-14, 02:32:00,VALID,917.415,VALID,0,VALID,98.8075,VALID,0,VALID,19.3193,VALID,42,VALID,1.19417,
2003-06-14, 02:33:00,VALID,917.396,VALID,0,VALID,98.9436,VALID,-0.0169808,VALID,19.3489,VALID,43,VALID,1.25617,
2003-06-14, 02:34:00,VALID,917.391,VALID,0,VALID,99.1241,VALID,0,VALID,19.3648,VALID,42,VALID,1.18069,
2003-06-14, 02:35:00,VALID,917.374,VALID,0,VALID,99.2093,VALID,0,VALID,19.3973,VALID,43,VALID,0.937109,
2003-06-14, 02:36:00,VALID,917.363,VALID,0,VALID,99.2284,VALID,0,VALID,19.4164,VALID,56,VALID,0.598157,
2003-06-14, 02:37:00,VALID,917.365,VALID,0,VALID,99.1534,VALID,0.0169808,VALID,19.3836,VALID,56,VALID,0.317969,
2003-06-14, 02:38:00,VALID,917.374,VALID,0,VALID,99.1508,VALID,0,VALID,19.365,VALID,55,VALID,0.278245,
2003-06-14, 02:39:00,VALID,917.386,VALID,0,VALID,99.1979,VALID,-0.0169808,VALID,19.365,VALID,55,VALID,0,
2003-06-14, 02:40:00,VALID,917.379,VALID,0,VALID,99.1775,VALID,0.0339617,VALID,19.3585,VALID,55,VALID,0.00551471,
2003-06-14, 02:41:00,VALID,917.383,VALID,0,VALID,99.105,VALID,0.0339617,VALID,19.3228,VALID,182,VALID,0.477796,
2003-06-14, 02:42:00,VALID,917.403,VALID,0,VALID,99.1763,VALID,0.0169808,VALID,19.3099,VALID,186,VALID,0.570946,
2003-06-14, 02:43:00,VALID,917.399,VALID,0,VALID,99.2793,VALID,0,VALID,19.3456,VALID,174,VALID,0.750211,
2003-06-14, 02:44:00,VALID,917.393,VALID,0,VALID,99.292,VALID,0,VALID,19.3486,VALID,179,VALID,0.59375,
2003-06-14, 02:45:00,VALID,917.392,VALID,0,VALID,99.3352,VALID,0,VALID,19.365,VALID,159,VALID,0.726768,
2003-06-14, 02:46:00,VALID,917.374,VALID,0,VALID,99.2258,VALID,-0.0169808,VALID,19.3352,VALID,153,VALID,0.471012,
2003-06-14, 02:47:00,VALID,917.367,VALID,0,VALID,99.3823,VALID,0,VALID,19.3357,VALID,149,VALID,0.743924,
2003-06-14, 02:48:00,VALID,917.349,VALID,0,VALID,99.4954,VALID,0.0169808,VALID,19.3903,VALID,151,VALID,0.954687,
2003-06-14, 02:49:00,VALID,917.316,VALID,0,VALID,99.4942,VALID,0.0169808,VALID,19.4104,VALID,126,VALID,0.908637,
2003-06-14, 02:50:00,VALID,917.318,VALID,0,VALID,99.4865,VALID,0,VALID,19.403,VALID,125,VALID,1.02103,
2003-06-14, 02:51:00,VALID,917.29,VALID,0,VALID,99.5043,VALID,0,VALID,19.4097,VALID,145,VALID,0.957812,
2003-06-14, 02:52:00,VALID,917.262,VALID,0,VALID,99.4942,VALID,0,VALID,19.3903,VALID,128,VALID,0.640825,
2003-06-14, 02:53:00,VALID,917.234,VALID,0,VALID,99.531,VALID,0,VALID,19.4167,VALID,104,VALID,0.614383,
2003-06-14, 02:54:00,VALID,917.227,VALID,0,VALID,99.5387,VALID,0,VALID,19.4134,VALID,87,VALID,0.560389,
2003-06-14, 02:55:00,VALID,917.203,VALID,0,VALID,99.5704,VALID,0,VALID,19.4137,VALID,99,VALID,0.50957,
2003-06-14, 02:56:00,VALID,917.186,VALID,0,VALID,99.6213,VALID,-0.0169808,VALID,19.4422,VALID,122,VALID,0.782422,
2003-06-14, 02:57:00,VALID,917.18,VALID,0,VALID,99.6607,VALID,-0.0339617,VALID,19.4817,VALID,121,VALID,0.968956,
2003-06-14, 02:58:00,VALID,917.167,VALID,0,VALID,99.6951,VALID,-0.0169808,VALID,19.5428,VALID,109,VALID,1.13542,
2003-06-14, 02:59:00,VALID,917.159,VALID,0,VALID,99.7192,VALID,-0.101885,VALID,19.5925,VALID,118,VALID,1.16777,
2003-06-14, 03:00:00,VALID,917.139,VALID,0,VALID,99.7103,VALID,-0.0509425,VALID,19.6171,VALID,117,VALID,1.09916,
2003-06-14, 03:01:00,VALID,917.136,VALID,0,VALID,99.6951,VALID,-0.0169808,VALID,19.656,VALID,104,VALID,1.36328,
2003-06-14, 03:02:00,VALID,917.13,VALID,0,VALID,99.6633,VALID,-0.0339617,VALID,19.6945,VALID,104,VALID,1.15685,
2003-06-14, 03:03:00,VALID,917.12,VALID,0,VALID,99.6124,VALID,-0.0679233,VALID,19.743,VALID,118,VALID,1.33765,
2003-06-14, 03:04:00,VALID,917.112,VALID,0,VALID,99.5145,VALID,-0.0339617,VALID,19.8043,VALID,122,VALID,1.03568,
2003-06-14, 03:05:00,VALID,917.113,VALID,0,VALID,99.3225,VALID,-0.0509425,VALID,19.8401,VALID,102,VALID,0.977764,
2003-06-14, 03:06:00,VALID,917.107,VALID,0,VALID,98.9995,VALID,-0.0679233,VALID,19.8721,VALID,108,VALID,1.42012,
2003-06-14, 03:07:00,VALID,917.117,VALID,0,VALID,98.6485,VALID,-0.0509425,VALID,19.924,VALID,113,VALID,1.30736,
2003-06-14, 03:08:00,VALID,917.126,VALID,0,VALID,98.2162,VALID,-0.0679233,VALID,19.9816,VALID,118,VALID,0.901228,
2003-06-14, 03:09:00,VALID,917.138,VALID,0,VALID,97.6961,VALID,-0.0679233,VALID,20.0241,VALID,104,VALID,0.607686,
2003-06-14, 03:10:00,VALID,917.15,VALID,0,VALID,97.204,VALID,-0.0169808,VALID,20.0723,VALID,131,VALID,0.905107,
2003-06-14, 03:11:00,VALID,917.167,VALID,0,VALID,96.6292,VALID,-0.0849042,VALID,20.1018,VALID,105,VALID,1.2641,
2003-06-14, 03:12:00,VALID,917.162,VALID,0,VALID,96.0023,VALID,-0.0339617,VALID,20.1334,VALID,74,VALID,0.225718,
2003-06-14, 03:13:00,VALID,917.174,VALID,0,VALID,95.6488,VALID,-0.0339617,VALID,20.1759,VALID,100,VALID,0.887695,
2003-06-14, 03:14:00,VALID,917.176,VALID,0,VALID,95.2724,VALID,-0.0339617,VALID,20.2076,VALID,75,VALID,1.00469,
2003-06-14, 03:15:00,VALID,917.186,VALID,0,VALID,95.0677,VALID,-0.0679233,VALID,20.266,VALID,111,VALID,0.760714,
2003-06-14, 03:16:00,VALID,917.202,VALID,0,VALID,94.4904,VALID,-0.0849042,VALID,20.3147,VALID,60,VALID,0.716741,
2003-06-14, 03:17:00,VALID,917.208,VALID,0,VALID,94.409,VALID,-0.0509425,VALID,20.3403,VALID,100,VALID,0.664907,
2003-06-14, 03:18:00,VALID,917.214,VALID,0,VALID,94.2017,VALID,-0.0679233,VALID,20.3726,VALID,87,VALID,0.676398,
2003-06-14, 03:19:00,VALID,917.23,VALID,0,VALID,93.9779,VALID,-0.0509425,VALID,20.4145,VALID,118,VALID,0.568201,
2003-06-14, 03:20:00,VALID,917.221,VALID,0,VALID,93.7923,VALID,-0.0679233,VALID,20.424,VALID,115,VALID,0.836965,
2003-06-14, 03:21:00,VALID,917.226,VALID,0,VALID,93.4629,VALID,-0.0509425,VALID,20.4568,VALID,145,VALID,1.10855,
2003-06-14, 03:22:00,VALID,917.205,VALID,0,VALID,93.201,VALID,-0.0339617,VALID,20.495,VALID,127,VALID,0.859961,
2003-06-14, 03:23:00,VALID,917.201,VALID,0,VALID,92.9479,VALID,-0.0679233,VALID,20.5052,VALID,120,VALID,0.831572,
2003-06-14, 03:24:00,VALID,917.201,VALID,0,VALID,93.0929,VALID,-0.0169808,VALID,20.4953,VALID,147,VALID,0.88418,
2003-06-14, 03:25:00,VALID,917.187,VALID,0,VALID,93.1425,VALID,-0.101885,VALID,20.4988,VALID,139,VALID,0.59375,
2003-06-14, 03:26:00,VALID,917.184,VALID,0,VALID,93.1094,VALID,-0.0849042,VALID,20.4692,VALID,132,VALID,0.668285,
2003-06-14, 03:27:00,VALID,917.176,VALID,0,VALID,93.3587,VALID,-0.0509425,VALID,20.4342,VALID,98,VALID,0.996795,
2003-06-14, 03:28:00,VALID,917.18,VALID,0,VALID,93.6295,VALID,-0.0849042,VALID,20.4275,VALID,113,VALID,1.17681,
2003-06-14, 03:29:00,VALID,917.173,VALID,0,VALID,93.2328,VALID,-0.0679233,VALID,20.4632,VALID,134,VALID,0.530849,
2003-06-14, 03:30:00,VALID,917.187,VALID,0,VALID,93.1438,VALID,-0.0169808,VALID,20.4692,VALID,112,VALID,0.439787,
2003-06-14, 03:31:00,VALID,917.182,VALID,0,VALID,93.3269,VALID,-0.0509425,VALID,20.453,VALID,106,VALID,0.763622,
2003-06-14, 03:32:00,VALID,917.163,VALID,0,VALID,93.2887,VALID,-0.0679233,VALID,20.4364,VALID,81,VALID,0.371094,
2003-06-14, 03:33:00,VALID,917.151,VALID,0,VALID,93.0738,VALID,-0.0169808,VALID,20.4304,VALID,80,VALID,0.560547,
2003-06-14, 03:34:00,VALID,917.124,VALID,0,VALID,92.9441,VALID,-0.0169808,VALID,20.3984,VALID,71,VALID,0.767736,